IBB596 GCLP-GCRR

Flight info

Callsign IBB596
Flight time N/A
Altitude 11000
Route RASEP
Aircraft AT75/M-SDE2E3FGHIRWXY/LB1

Departure

Time N/A
Airport Gran Canaria Airport (GCLP)

Arrival

Time 2026-05-04 23:57
Airport César Manrique-Lanzarote Airport (GCRR)
Time Latitude Longitude Altitude Speed Heading
2026-05-04 23:36 28.45212 -14.74454 10928 ft 267 kts 48°
2026-05-04 23:36 28.46469 -14.72910 10930 ft 266 kts 48°
2026-05-04 23:36 28.47730 -14.71369 10930 ft 265 kts 47°
2026-05-04 23:37 28.48939 -14.69883 10921 ft 265 kts 48°
2026-05-04 23:37 28.50237 -14.68294 10922 ft 264 kts 48°
2026-05-04 23:37 28.51461 -14.66782 10925 ft 262 kts 48°
2026-05-04 23:37 28.52688 -14.65252 10926 ft 262 kts 49°
2026-05-04 23:38 28.53910 -14.63728 10941 ft 260 kts 49°
2026-05-04 23:38 28.55147 -14.62205 10925 ft 259 kts 48°
2026-05-04 23:38 28.56379 -14.60703 10913 ft 259 kts 48°
2026-05-04 23:38 28.57616 -14.59202 10920 ft 258 kts 47°
2026-05-04 23:39 28.58843 -14.57714 10917 ft 257 kts 48°
2026-05-04 23:39 28.60052 -14.56220 10914 ft 256 kts 48°
2026-05-04 23:39 28.61250 -14.54722 10925 ft 255 kts 49°
2026-05-04 23:39 28.62434 -14.53253 10933 ft 254 kts 48°
2026-05-04 23:40 28.63636 -14.51783 10937 ft 254 kts 47°
2026-05-04 23:40 28.64843 -14.50318 10923 ft 254 kts 48°
2026-05-04 23:40 28.66051 -14.48827 10922 ft 255 kts 49°
2026-05-04 23:40 28.67232 -14.47352 10935 ft 255 kts 49°
2026-05-04 23:41 28.68447 -14.45860 10936 ft 255 kts 48°
2026-05-04 23:41 28.69645 -14.44351 10916 ft 256 kts 51°
2026-05-04 23:41 28.70732 -14.42743 10925 ft 256 kts 55°
2026-05-04 23:41 28.71762 -14.41085 10934 ft 257 kts 57°
2026-05-04 23:42 28.72771 -14.39403 10935 ft 258 kts 57°
2026-05-04 23:42 28.73787 -14.37714 10926 ft 259 kts 57°
2026-05-04 23:42 28.74820 -14.36010 10923 ft 260 kts 57°
2026-05-04 23:42 28.75851 -14.34312 10921 ft 261 kts 57°
2026-05-04 23:43 28.76880 -14.32613 10921 ft 261 kts 57°
2026-05-04 23:43 28.77920 -14.30910 10933 ft 263 kts 57°
2026-05-04 23:43 28.78954 -14.29213 10940 ft 265 kts 57°
2026-05-04 23:43 28.80035 -14.27463 10917 ft 268 kts 56°
2026-05-04 23:44 28.81118 -14.25739 10922 ft 268 kts 56°
2026-05-04 23:44 28.82199 -14.24009 10930 ft 270 kts 56°
2026-05-04 23:44 28.83280 -14.22245 10929 ft 271 kts 57°
2026-05-04 23:44 28.84353 -14.20483 10870 ft 274 kts 56°
2026-05-04 23:45 28.85448 -14.18682 10797 ft 277 kts 57°
2026-05-04 23:45 28.86562 -14.16882 10716 ft 279 kts 56°
2026-05-04 23:45 28.87693 -14.15069 10632 ft 281 kts 56°
2026-05-04 23:45 28.88833 -14.13235 10542 ft 283 kts 56°
2026-05-04 23:46 28.89967 -14.11397 10355 ft 284 kts 56°
2026-05-04 23:46 28.91008 -14.09501 10163 ft 281 kts 67°
2026-05-04 23:46 28.91424 -14.07365 9917 ft 274 kts 87°
2026-05-04 23:46 28.91234 -14.05236 9629 ft 266 kts 108°
2026-05-04 23:47 28.90645 -14.03273 9315 ft 258 kts 116°
2026-05-04 23:47 28.89951 -14.01452 8986 ft 243 kts 120°
2026-05-04 23:47 28.89253 -13.99739 8642 ft 231 kts 120°
2026-05-04 23:47 28.88584 -13.98127 8322 ft 221 kts 121°
2026-05-04 23:48 28.87961 -13.96565 7972 ft 218 kts 119°
2026-05-04 23:48 28.87364 -13.94929 7659 ft 221 kts 117°
2026-05-04 23:48 28.86802 -13.93320 7343 ft 224 kts 117°
2026-05-04 23:48 28.86456 -13.92317 7147 ft 225 kts 117°
2026-05-04 23:49 28.86139 -13.91396 6962 ft 225 kts 117°
2026-05-04 23:49 28.85562 -13.89725 6670 ft 225 kts 117°
2026-05-04 23:49 28.84992 -13.88074 6412 ft 223 kts 117°
2026-05-04 23:49 28.84415 -13.86418 6132 ft 223 kts 117°
2026-05-04 23:50 28.83835 -13.84790 5843 ft 221 kts 119°
2026-05-04 23:50 28.82943 -13.83410 5633 ft 212 kts 135°
2026-05-04 23:50 28.81980 -13.82131 5345 ft 213 kts 136°
2026-05-04 23:50 28.80996 -13.80850 5076 ft 213 kts 137°
2026-05-04 23:51 28.80025 -13.79600 4806 ft 213 kts 137°
2026-05-04 23:51 28.79044 -13.78340 4562 ft 211 kts 137°
2026-05-04 23:51 28.78090 -13.77101 4342 ft 206 kts 137°
2026-05-04 23:51 28.77141 -13.75875 4123 ft 206 kts 137°
2026-05-04 23:52 28.76193 -13.74658 3900 ft 205 kts 136°
2026-05-04 23:52 28.75382 -13.73307 3584 ft 212 kts 114°
2026-05-04 23:52 28.75470 -13.71657 3453 ft 212 kts 76°
2026-05-04 23:52 28.76174 -13.70195 3324 ft 210 kts 58°
2026-05-04 23:53 28.77187 -13.69009 3186 ft 210 kts 41°
2026-05-04 23:53 28.78455 -13.68189 3046 ft 209 kts 24°
2026-05-04 23:53 28.79849 -13.67813 2959 ft 205 kts
2026-05-04 23:53 28.81232 -13.67896 2949 ft 197 kts 351°
2026-05-04 23:54 28.82579 -13.67770 2892 ft 194 kts 19°
2026-05-04 23:54 28.83691 -13.66979 2946 ft 182 kts 37°
2026-05-04 23:54 28.84699 -13.66231 2897 ft 165 kts 32°
2026-05-04 23:54 28.85686 -13.65665 2897 ft 152 kts 25°
2026-05-04 23:55 28.86689 -13.65238 2678 ft 157 kts 26°
2026-05-04 23:55 28.87582 -13.64588 2541 ft 152 kts 34°
2026-05-04 23:55 28.89495 -13.63466 2012 ft 143 kts 28°
2026-05-04 23:56 28.90346 -13.62966 1689 ft 136 kts 28°
2026-05-04 23:56 28.91149 -13.62500 1369 ft 126 kts 28°
2026-05-04 23:56 28.91921 -13.62051 986 ft 124 kts 28°
2026-05-04 23:56 28.92686 -13.61607 601 ft 121 kts 28°
2026-05-04 23:57 28.93421 -13.61182 253 ft 116 kts 29°
2026-05-04 23:57 28.94095 -13.60786 56 ft 99 kts 28°
2026-05-04 23:57 28.94412 -13.60603 53 ft 45 kts 26°
2026-05-04 23:57 28.94489 -13.60567 53 ft 0 kts 332°